Regional Weather Roundup
Issued by NWS Boston, MA

Home | Current Version | Previous Version | Text Only | Print | Product List | Glossary On
Versions: 1 2 3 4 5 6 7 8 9 10 11 12 13 14 15 16 17 18 19 20 21 22 23 24 25 26 27 28 29 30 31 32 33 34 35 36 37 38 39 40 41 42 43 44 45 46 47 48 49 50
000
ASUS41 KBOX 010110
RWRBOX

REGIONAL WEATHER ROUNDUP
NATIONAL WEATHER SERVICE TAUNTON MA
800 PM EST SAT JAN 31 2015

NOTE:  "FAIR" INDICATES FEW OR NO CLOUDS BELOW 12,000 FEET WITH NO
SIGNIFICANT WEATHER AND/OR OBSTRUCTIONS TO VISIBILITY.  THE FOLLOWING
OBSERVATION LOCATIONS DO NOT REPORT PRESENT WEATHER...PROVINCETOWN...
SMITHFIELD...BLOCK ISLAND...KEENE...AND OXFORD.

MAZALL-010200-
EASTERN MASSACHUSETTS

CITY           SKY/WX    TMP DP  RH WIND       PRES   REMARKS
BOSTON         CLEAR     16  -4  41 NW18G26   30.01R WCI   0
BEVERLY        CLEAR     15  -8  35 NW18G32   29.98R WCI  -2
LAWRENCE       CLEAR     14  -7  38 NW10G22   30.02R WCI   1
BEDFORD        CLEAR     13  -4  46 NW18G28   30.01R WCI  -4
BLUE HILL        N/A     12  -4  48 NW18G26   29.95R WCI  -6
NORWOOD        CLEAR     15  -5  40 NW10      30.02R WCI   2
MARSHFIELD     CLEAR     19  -2  38 NW12G24   29.99R WCI   7
PLYMOUTH       CLEAR     16  -4  41 NW20G31   29.97S WCI  -1
TAUNTON        CLEAR     18  -4  37 NW14G23   30.00R WCI   4
NEW BEDFORD    CLEAR     17  -4  39 NW12G21   29.99R WCI   4
$$

MAZALL-010200-
CAPE COD AND THE ISLANDS

CITY           SKY/WX    TMP DP  RH WIND       PRES   REMARKS
FALMOUTH       CLEAR     16  -4  41 NW13G26   29.96R WCI   2
HYANNIS        CLEAR     19  -2  39 NW15G31   29.91F WCI   5
CHATHAM        CLEAR     20   4  50 NW16G28   29.92R WCI   6
PROVINCETOWN   CLEAR     21   9  58 NW30G44   29.93S WCI   3
NANTUCKET      CLEAR     21   1  41 NW29G36   29.95R WCI   3
MARTHAS VNYRD  CLEAR     18  -2  41 NW22G35   29.98R WCI   1
$$

MAZALL-010200-
CENTRAL AND WESTERN MASSACHUSETTS

CITY           SKY/WX    TMP DP  RH WIND       PRES   REMARKS
WORCESTER      FAIR     N/A N/A N/A NW18G25   29.96R
FITCHBURG      CLEAR     13  -6  42 NW8G20    30.03R WCI   2
ORANGE         CLEAR      3  -5  69 CALM      30.04R
SPRINGFIELD    CLEAR     12  -6  43 W10       30.08R WCI  -1
WESTFIELD      CLEAR     14  -5  42 NW14G24   30.08R WCI  -1
NORTH ADAMS    CLEAR     11  -4  51 W13       30.11R WCI  -4
PITTSFIELD     CLEAR      8  -2  63 NW10      30.05R WCI  -6
$$

RIZALL-010200-
RHODE ISLAND

CITY           SKY/WX    TMP DP  RH WIND       PRES   REMARKS
PROVIDENCE     FAIR      17  -4  39 NW10G20   30.03R WCI   5
NEWPORT        FAIR      18  -1  43 NW17G25   30.01R WCI   3
BLOCK ISLAND   FAIR      19   0  42 NW15G25   30.03R WCI   5
SMITHFIELD     FAIR      14  -6  41 NW13G20   29.97S WCI   0
WESTERLY       FAIR      17  -6  35 NW8G18    30.07R WCI   7
$$

CTZALL-010200-
CONNECTICUT

CITY           SKY/WX    TMP DP  RH WIND       PRES   REMARKS
BRADLEY INTL   CLEAR     14  -5  42 NW8       30.10R WCI   3
HARTFORD       FAIR      15  -5  40 NW8       30.13R WCI   4
BRIDGEPORT     CLEAR     19   0  43 NW20G28   30.15R WCI   3
DANBURY        CLEAR     15  -3  44 NW6       30.15R WCI   6
GROTON         CLEAR     16  -4  41 NW20G29   30.09R WCI  -1
NEW HAVEN      CLEAR     20  -1  40 NW10G18   30.13R WCI   9
CHESTER        FAIR      18  -6  35 NW10G21   30.09R WCI   6
MERIDEN        CLEAR     16  -6  37 CALM      30.12R
WILLIMANTIC    CLEAR     14  -7  38 W6        30.09R WCI   5
OXFORD         CLEAR     16  -6  38 N9        30.09R WCI   4
$$

MEZ002-015-021-024-NHZ003-005-008-011-012-014-VTZ005-008-010200-
NORTHERN NEW ENGLAND

CITY           SKY/WX    TMP DP  RH WIND       PRES   REMARKS
PORTLAND ME    CLEAR     13 -10  35 N7        29.90S WCI   3
BANGOR ME      PTCLDY     7  -4  60 NW14G23   29.80R WCI -10
CONCORD NH     FAIR      12 -10  36 NW14G20   30.01R WCI  -3
MANCHESTER NH  FAIR      13  -7  40 NW15G24   30.00R WCI  -3
NASHUA NH      FAIR      14  -5  42 N17G23    30.02S WCI  -3
PORTSMOUTH NH  CLEAR     11  -9  39 W16G25    29.94R WCI  -5
JAFFREY NH     FAIR      10  -8  44 NW6       29.96F WCI   0
KEENE NH       FAIR       9  -6  52 CALM      30.05R
BURLINGTON VT  FAIR       0 -12  57 E5        30.17S WCI -10
MT. WASHINGTON CLEAR     -8 -17  65 NW70G89     N/A  WCI -46
$$

NYZ052-076-010200-
EASTERN NEW YORK

CITY           SKY/WX    TMP DP  RH WIND       PRES   REMARKS
ALBANY         FAIR      12  -2  53 NW5       30.20R WCI   4
NEW YORK CITY  FAIR      22   7  52 NW21G26   30.19R WCI   6
$$

ANZALL-010200-
MARINE OBSERVATIONS

STATION/POSITION TIME  TEMP    WIND        PRES    VSBY  WAVE
                       AIR SEA DIR/SP/G                  HT/PER
                 (UTC) (F)     (DEG/KT/KT) (MB)    (MI)  (FT/S)
BOSTON BUOY      0050   21 40  310/ 33/ 39 1013.7F         7/ 5
BUZZARDS BAY     0000          310/ 27/ 33 1016.1R
NANTUCKET SOUND  NOT AVBL
MASS BAY-STELLWA 0004   20 41  300/ 25/ 33   N/A    1 7/8  6/ 4
ISLE OF SHOALS   0100   15     300/ 32/ 34 1012.0R
S OF BLOCK IS    0008      42                N/A           9/ 7
$$

......................KEY.........................
  SKY/WX - SKY CONDITION/PRESENT WEATHER
  TMP    - TEMPERATURE IN FAHRENHEIT
  DWPT   - DEWPOINT IN FAHRENHEIT
  RH     - RELATIVE HUMIDITY IN PERCENT
  WIND   - DIRECTION AND SPEED IN MPH
  PRES   - MEAN SEA LEVEL PRESSURE IN INCHES OF HG
  WCI    - WIND CHILL INDEX
  VSB    - VISIBILITY IN MILES
  HX     - HEAT INDEX
  TC     - TEMPERATURE IN CELSIUS
  VRB    - VARIABLE WIND DIRECTION
  N/A    - NOT AVAILABLE



USA.gov is the U.S. government's official web portal to all federal, state and local government web resources and services.